Hourly Data Report for October 05, 2017

All times are specified in Local Standard Time (LST). Add 1 hour to adjust for Daylight Saving Time where and when it is observed.

LAC LA MARTRE
NORTHWEST TERRITORIES

63°08'01.070" N
117°14'41.050" W
271.30 m
2202678
71163
WMT

Download Data

Hourly Data (October 2017)
Hourly Data Report for October 5, 2017
Temp Definition
°C
Dew Point Temp Definition
°C
Rel Hum Definition
%
Wind Dir Definition
10's deg

Wind Spd Definition
km/h
Visibility Definition
km
Stn Press Definition
kPa
Hmdx Definition


Wind Chill Definition


Weather Definition


TIME
00:00 0.9 -1.0 87 11 10   98.40     LegendNANA
01:00 0.6 -1.3 87 10 12   98.32     LegendNANA
02:00 0.8 -1.8 82 11 11   98.27     LegendNANA
03:00 0.8 -1.7 84 11 13   98.16     LegendNANA
04:00 0.9 -1.7 82 11 14   98.10     LegendNANA
05:00 1.0 -1.6 83 11 13   98.02     LegendNANA
06:00 1.1 -1.7 81 11 14   97.93     LegendNANA
07:00 1.2 -1.5 82 11 14   97.81     LegendNANA
08:00 1.4 -1.2 83 12 18   97.69     LegendNANA
09:00 1.8 -0.7 84 12 19   97.57     LegendNANA
10:00 2.3 0.0 85 12 19   97.42     LegendNANA
11:00 3.3 0.9 84 12 17   97.30     LegendNANA
12:00 4.3 1.6 83 12 19   97.17     LegendNANA
13:00 5.4 2.3 81 12 20   97.01     LegendNANA
14:00 5.3 2.5 82 12 22   96.85     LegendNANA
15:00 5.2 2.6 83 13 17   96.82     LegendNANA
16:00 5.7 2.9 82 12 15   96.69     LegendNANA
17:00 5.4 3.1 85 11 10   96.61     LegendNANA
18:00 5.1 3.2 87 9 9   96.52     LegendNANA
19:00 4.6 2.8 88 10 11   96.44     LegendNANA
20:00 3.6 1.4 86 8 9   96.43     LegendNANA
21:00 3.4 0.9 84 11 12   96.34     LegendNANA
22:00 3.1 0.4 83 12 10   96.24     LegendNANA
23:00 2.9 0.3 83 12 5   96.19     LegendNANA

Notes on Data Quality.

Legend

  • E = Estimated
  • M = Missing
  • NA = Not Available
  • ‡ = Partner data that is not subject to review by the National Climate Archives
Date modified: